User: anonymous   Login
Location: Unspecified
(57.0530°N, 0.0000°E)
Time: 07:06:11
(UTC+00:00)
Language:

Meteor 1-19 - Orbit

View from above orbital plane
View from above orbital plane
View from above satellite
View from above satellite

Ground track
Ground track

The orbit is defined by the following mean orbital elements,

1 07490U          26088.11354256 +.00000000 +00000-0 +88133-4 0 00001
2 07490  81.1889 216.3475 0029262 309.1264  50.7306 14.10556092    05
Epoch (UTC): 29 March 2026 02:43:30
Eccentricity: 0.0029262
inclination: 81.1889°
perigee height: 836 km
apogee height: 879 km
right ascension of ascending node: 216.3475°
argument of perigee: 309.1264°
revolutions per day: 14.10556092
mean anomaly at epoch: 50.7306°

The dashed part of the orbit path shows where the satellite is in the earth's shadow,  

DLR